User: anonymous   Login
Location: Unspecified
(0.0000°N, 0.0000°E)
Time: 19:49:47
(UTC+00:00)
Language:

IBEX - Orbit

View from above orbital plane
View from above orbital plane
View from above satellite
View from above satellite

Ground track
Ground track

The orbit data is extracted from the following two-line orbital elements,

1 33401U 08051A   16238.51727490 -.00001704  00000-0  00000+0 0  9992
2 33401  48.4894  19.2050 5302341 183.1092 357.0415  0.11884002  3315
Epoch (UTC): 25 August 2016 12:24:52
Eccentricity: 0.5302341
inclination: 48.4894°
perigee height: 75714 km
apogee height: 261033 km
right ascension of ascending node: 19.2050°
argument of perigee: 183.1092°
revolutions per day: 0.11884002
mean anomaly at epoch: 357.0415°
orbit number at epoch: 331

The dashed part of the orbit path shows where the satellite is in the earth's shadow,  

DLR